EXS267 EGNM-LFPG

Flight info

Callsign EXS267
Flight time 1h 5m
Altitude 23000
Route POL DCT MCT DCT LISTO P18 STAFA L8 HON/N0411F290 UL612 WOD UM605 BIBAX
Aircraft B738/M-SDE2E3FGHIRWXY/LB1

Departure

Time 2026-05-08 18:30
Airport Leeds Bradford Airport (EGNM)

Arrival

Time 2026-05-08 19:35
Airport Charles de Gaulle International Airport (LFPG)
Time Latitude Longitude Altitude Speed Heading
2026-05-08 17:41 53.86878 -1.65690 664 ft 0 kts
2026-05-08 18:18 53.86872 -1.65690 664 ft 4 kts
2026-05-08 18:19 53.86847 -1.65691 664 ft 2 kts
2026-05-08 18:19 53.86825 -1.65688 663 ft 4 kts 324°
2026-05-08 18:19 53.86817 -1.65658 661 ft 4 kts 271°
2026-05-08 18:19 53.86816 -1.65613 663 ft 4 kts 271°
2026-05-08 18:20 53.86816 -1.65600 663 ft 0 kts 271°
2026-05-08 18:24 53.86816 -1.65626 663 ft 6 kts 271°
2026-05-08 18:25 53.86817 -1.65732 664 ft 11 kts 265°
2026-05-08 18:25 53.86812 -1.65869 664 ft 12 kts 271°
2026-05-08 18:25 53.86815 -1.66000 665 ft 9 kts 272°
2026-05-08 18:25 53.86799 -1.66069 665 ft 7 kts 200°
2026-05-08 18:26 53.86757 -1.66099 667 ft 7 kts 229°
2026-05-08 18:26 53.86746 -1.66175 667 ft 7 kts 268°
2026-05-08 18:26 53.86747 -1.66257 667 ft 8 kts 272°
2026-05-08 18:26 53.86791 -1.66365 667 ft 16 kts 319°
2026-05-08 18:27 53.86900 -1.66531 670 ft 26 kts 318°
2026-05-08 18:27 53.86998 -1.66682 673 ft 31 kts 318°
2026-05-08 18:27 53.87175 -1.66953 685 ft 15 kts 318°
2026-05-08 18:27 53.87271 -1.66995 688 ft 15 kts
2026-05-08 18:28 53.87370 -1.66997 688 ft 14 kts 340°
2026-05-08 18:28 53.87393 -1.67122 686 ft 10 kts 232°
2026-05-08 18:28 53.87340 -1.67191 683 ft 8 kts 193°
2026-05-08 18:28 53.87297 -1.67144 688 ft 8 kts 135°
2026-05-08 18:29 53.87280 -1.67118 685 ft 0 kts 138°
2026-05-08 18:29 53.87264 -1.67095 687 ft 21 kts 137°
2026-05-08 18:29 53.86959 -1.66621 671 ft 98 kts 137°
2026-05-08 18:29 53.86290 -1.65586 678 ft 159 kts 135°
2026-05-08 18:30 53.85417 -1.64211 1159 ft 177 kts 137°
2026-05-08 18:30 53.84499 -1.62860 2143 ft 173 kts 139°
2026-05-08 18:30 53.83588 -1.61564 2920 ft 182 kts 138°
2026-05-08 18:30 53.82455 -1.60277 3171 ft 211 kts 160°
2026-05-08 18:31 53.80932 -1.60142 3512 ft 230 kts 194°
2026-05-08 18:31 53.79479 -1.61580 3851 ft 254 kts 229°
2026-05-08 18:31 53.78784 -1.64307 4629 ft 262 kts 260°
2026-05-08 18:31 53.78596 -1.67366 5597 ft 262 kts 261°
2026-05-08 18:32 53.78369 -1.70442 6471 ft 266 kts 260°
2026-05-08 18:32 53.78114 -1.73554 6898 ft 266 kts 259°
2026-05-08 18:32 53.77827 -1.76672 7101 ft 272 kts 258°
2026-05-08 18:32 53.77516 -1.79839 7095 ft 272 kts 258°
2026-05-08 18:33 53.77200 -1.82981 7100 ft 269 kts 258°
2026-05-08 18:33 53.76886 -1.86088 7101 ft 268 kts 258°
2026-05-08 18:33 53.76567 -1.89213 7191 ft 272 kts 258°
2026-05-08 18:33 53.76243 -1.92390 7946 ft 273 kts 258°
2026-05-08 18:34 53.75922 -1.95540 8892 ft 272 kts 258°
2026-05-08 18:34 53.75597 -1.98708 9786 ft 274 kts 258°
2026-05-08 18:34 53.75267 -2.01909 10498 ft 282 kts 258°
2026-05-08 18:34 53.74905 -2.05307 10707 ft 306 kts 255°
2026-05-08 18:35 53.74014 -2.08667 10913 ft 325 kts 230°
2026-05-08 18:35 53.72279 -2.11054 11482 ft 332 kts 206°
2026-05-08 18:35 53.70073 -2.12271 12239 ft 335 kts 195°
2026-05-08 18:35 53.67793 -2.13198 13035 ft 338 kts 194°
2026-05-08 18:36 53.65486 -2.14099 13777 ft 343 kts 194°
2026-05-08 18:36 53.63152 -2.15014 14451 ft 346 kts 194°
2026-05-08 18:36 53.60797 -2.15951 15150 ft 348 kts 195°
2026-05-08 18:36 53.58432 -2.16906 15835 ft 351 kts 195°
2026-05-08 18:37 53.56044 -2.17878 16510 ft 354 kts 195°
2026-05-08 18:37 53.53674 -2.18848 17171 ft 357 kts 195°
2026-05-08 18:37 53.51251 -2.19842 17825 ft 360 kts 195°
2026-05-08 18:37 53.48806 -2.20845 18461 ft 363 kts 195°
2026-05-08 18:38 53.46339 -2.21855 19019 ft 366 kts 195°
2026-05-08 18:38 53.43852 -2.22874 19575 ft 369 kts 195°
2026-05-08 18:38 53.41346 -2.23898 20131 ft 372 kts 195°
2026-05-08 18:38 53.38819 -2.24929 20668 ft 375 kts 195°
2026-05-08 18:39 53.36226 -2.25632 21178 ft 381 kts 186°
2026-05-08 18:39 53.33559 -2.25613 21699 ft 387 kts 177°
2026-05-08 18:39 53.30883 -2.24913 22215 ft 391 kts 173°
2026-05-08 18:39 53.28195 -2.24074 22703 ft 395 kts 172°
2026-05-08 18:40 53.26399 -2.23508 23017 ft 397 kts 172°
2026-05-08 18:40 53.23675 -2.22666 23076 ft 398 kts 173°
2026-05-08 18:40 53.20954 -2.21850 23098 ft 398 kts 173°
2026-05-08 18:40 53.18222 -2.21046 23093 ft 399 kts 173°
2026-05-08 18:41 53.15499 -2.20277 23084 ft 394 kts 175°
2026-05-08 18:41 53.11928 -2.20139 23084 ft 385 kts 188°
2026-05-08 18:41 53.09258 -2.20611 23092 ft 387 kts 188°
2026-05-08 18:41 53.07444 -2.20934 23087 ft 388 kts 188°
2026-05-08 18:42 53.04758 -2.21384 23082 ft 389 kts 188°
2026-05-08 18:42 53.02059 -2.21811 23075 ft 390 kts 188°
2026-05-08 18:42 52.99387 -2.22224 23075 ft 390 kts 188°
2026-05-08 18:42 52.96688 -2.22644 23057 ft 389 kts 187°
2026-05-08 18:43 52.93999 -2.23065 23066 ft 389 kts 187°
2026-05-08 18:43 52.91309 -2.23485 23074 ft 388 kts 187°
2026-05-08 18:43 52.88612 -2.23753 23059 ft 390 kts 179°
2026-05-08 18:43 52.85933 -2.22973 23086 ft 394 kts 166°
2026-05-08 18:44 52.83390 -2.21240 23065 ft 399 kts 153°
2026-05-08 18:44 52.81073 -2.18694 23088 ft 401 kts 148°
2026-05-08 18:44 52.78796 -2.16011 23074 ft 401 kts 148°
2026-05-08 18:44 52.76530 -2.13317 23074 ft 401 kts 148°
2026-05-08 18:45 52.74260 -2.10630 23059 ft 402 kts 148°
2026-05-08 18:45 52.71983 -2.07958 23067 ft 402 kts 148°
2026-05-08 18:45 52.69701 -2.05300 23074 ft 402 kts 148°
2026-05-08 18:45 52.67415 -2.02652 23075 ft 402 kts 148°
2026-05-08 18:46 52.65124 -2.00009 23056 ft 402 kts 148°
2026-05-08 18:46 52.62832 -1.97371 23065 ft 402 kts 148°
2026-05-08 18:46 52.60544 -1.94743 23069 ft 402 kts 148°
2026-05-08 18:46 52.58251 -1.92111 23076 ft 402 kts 148°
2026-05-08 18:47 52.55955 -1.89480 23079 ft 402 kts 148°
2026-05-08 18:47 52.53656 -1.86848 23075 ft 403 kts 148°
2026-05-08 18:47 52.51356 -1.84218 23079 ft 403 kts 148°
2026-05-08 18:47 52.49047 -1.81582 23066 ft 403 kts 148°
2026-05-08 18:48 52.46774 -1.78989 23070 ft 403 kts 148°
2026-05-08 18:48 52.44471 -1.76364 23073 ft 403 kts 148°
2026-05-08 18:48 52.42137 -1.73707 23078 ft 403 kts 148°
2026-05-08 18:48 52.39844 -1.71103 23277 ft 409 kts 148°
2026-05-08 18:49 52.37500 -1.68444 23820 ft 410 kts 148°
2026-05-08 18:49 52.35140 -1.65852 24311 ft 409 kts 152°
2026-05-08 18:49 52.32633 -1.63647 24707 ft 410 kts 156°
2026-05-08 18:49 52.30066 -1.61587 25146 ft 411 kts 157°
2026-05-08 18:50 52.27490 -1.59555 25692 ft 410 kts 157°
2026-05-08 18:50 52.24927 -1.57519 26236 ft 409 kts 157°
2026-05-08 18:50 52.22376 -1.55469 26748 ft 409 kts 157°
2026-05-08 18:50 52.19826 -1.53402 27212 ft 410 kts 157°
2026-05-08 18:51 52.17275 -1.51325 27699 ft 410 kts 157°
2026-05-08 18:51 52.14728 -1.49248 28212 ft 409 kts 157°
2026-05-08 18:51 52.12184 -1.47175 28696 ft 409 kts 158°
2026-05-08 18:51 52.09625 -1.45095 29010 ft 413 kts 158°
2026-05-08 18:52 52.04425 -1.40874 29103 ft 418 kts 157°
2026-05-08 18:52 51.99279 -1.36682 29069 ft 411 kts 157°
2026-05-08 18:53 51.94140 -1.32526 29080 ft 413 kts 158°
2026-05-08 18:53 51.88980 -1.28377 29084 ft 415 kts 158°
2026-05-08 18:54 51.83807 -1.24224 29075 ft 415 kts 158°
2026-05-08 18:54 51.78634 -1.20080 29064 ft 414 kts 157°
2026-05-08 18:55 51.70937 -1.13929 29074 ft 412 kts 157°
2026-05-08 18:56 51.65795 -1.09834 29077 ft 411 kts 157°
2026-05-08 18:56 51.60702 -1.05627 29069 ft 414 kts 151°
2026-05-08 18:57 51.56008 -1.00255 29064 ft 415 kts 147°
2026-05-08 18:57 51.51344 -0.94787 29062 ft 415 kts 147°
2026-05-08 18:58 51.46624 -0.89401 29083 ft 417 kts 148°
2026-05-08 18:58 51.42097 -0.83484 29087 ft 423 kts 140°
2026-05-08 18:59 51.37788 -0.77020 29080 ft 425 kts 139°
2026-05-08 18:59 51.33468 -0.70545 29074 ft 426 kts 140°
2026-05-08 19:00 51.29114 -0.64120 29068 ft 424 kts 140°
2026-05-08 19:00 51.24775 -0.57774 29071 ft 422 kts 140°
2026-05-08 19:01 51.20442 -0.51465 29077 ft 421 kts 140°
2026-05-08 19:01 51.16119 -0.45185 29097 ft 420 kts 140°
2026-05-08 19:02 51.11800 -0.38926 29101 ft 420 kts 140°
2026-05-08 19:02 51.07478 -0.32679 29101 ft 420 kts 140°
2026-05-08 19:03 51.03153 -0.26444 29097 ft 420 kts 140°
2026-05-08 19:03 50.98815 -0.20206 29101 ft 421 kts 140°
2026-05-08 19:04 50.94461 -0.13963 29076 ft 421 kts 140°
2026-05-08 19:04 50.90112 -0.07740 29074 ft 422 kts 141°
2026-05-08 19:05 50.85755 -0.01524 29078 ft 421 kts 140°
2026-05-08 19:05 50.81395 0.04683 29087 ft 422 kts 140°
2026-05-08 19:06 50.77022 0.10891 29085 ft 423 kts 140°
2026-05-08 19:06 50.72539 0.16920 29078 ft 423 kts 144°
2026-05-08 19:07 50.67951 0.22652 29082 ft 424 kts 144°
2026-05-08 19:07 50.63347 0.28459 29072 ft 424 kts 143°
2026-05-08 19:08 50.58768 0.34275 29080 ft 423 kts 143°
2026-05-08 19:08 50.54194 0.40089 29086 ft 422 kts 143°
2026-05-08 19:09 50.49629 0.45892 29081 ft 422 kts 143°
2026-05-08 19:09 50.45072 0.51662 28800 ft 417 kts 143°
2026-05-08 19:09 50.42825 0.54498 28417 ft 413 kts 143°
2026-05-08 19:10 50.40595 0.57309 28004 ft 409 kts 143°
2026-05-08 19:10 50.38415 0.60055 27643 ft 408 kts 143°
2026-05-08 19:10 50.36175 0.62870 27242 ft 416 kts 142°
2026-05-08 19:10 50.33910 0.65716 26846 ft 420 kts 142°
2026-05-08 19:11 50.31642 0.68569 26563 ft 415 kts 142°
2026-05-08 19:11 50.29404 0.71384 26303 ft 410 kts 142°
2026-05-08 19:11 50.27184 0.74172 26129 ft 409 kts 142°
2026-05-08 19:11 50.24979 0.76940 26080 ft 401 kts 142°
2026-05-08 19:12 50.22839 0.79623 26061 ft 387 kts 142°
2026-05-08 19:12 50.20756 0.82231 26065 ft 383 kts 142°
2026-05-08 19:12 50.18672 0.84833 26083 ft 385 kts 142°
2026-05-08 19:12 50.16578 0.87439 26077 ft 385 kts 142°
2026-05-08 19:13 50.14498 0.90022 25984 ft 378 kts 142°
2026-05-08 19:13 50.12449 0.92563 25626 ft 375 kts 142°
2026-05-08 19:13 50.10426 0.95070 25103 ft 378 kts 142°
2026-05-08 19:13 50.08362 0.97628 24704 ft 378 kts 142°
2026-05-08 19:14 50.06309 1.00164 24405 ft 374 kts 142°
2026-05-08 19:14 50.04142 1.02336 24087 ft 370 kts 153°
2026-05-08 19:14 50.01848 1.04101 23736 ft 365 kts 155°
2026-05-08 19:14 49.99549 1.05760 23235 ft 364 kts 156°
2026-05-08 19:15 49.97242 1.07409 22819 ft 363 kts 156°
2026-05-08 19:15 49.94969 1.09051 22496 ft 359 kts 155°
2026-05-08 19:15 49.92726 1.10691 22204 ft 354 kts 155°
2026-05-08 19:15 49.90511 1.12326 21788 ft 350 kts 155°
2026-05-08 19:16 49.88315 1.13957 21302 ft 349 kts 155°
2026-05-08 19:16 49.86133 1.15583 20866 ft 346 kts 155°
2026-05-08 19:16 49.83976 1.17193 20514 ft 341 kts 155°
2026-05-08 19:16 49.81872 1.18764 20142 ft 338 kts 155°
2026-05-08 19:17 49.79770 1.20332 19770 ft 334 kts 155°
2026-05-08 19:17 49.77693 1.21881 19397 ft 329 kts 155°
2026-05-08 19:17 49.75642 1.23409 18925 ft 326 kts 155°
2026-05-08 19:17 49.73601 1.24928 18478 ft 326 kts 155°
2026-05-08 19:18 49.71570 1.26439 18028 ft 322 kts 155°
2026-05-08 19:18 49.69558 1.27933 17483 ft 320 kts 155°
2026-05-08 19:18 49.67554 1.29421 16965 ft 319 kts 155°
2026-05-08 19:18 49.65553 1.30906 16543 ft 319 kts 155°
2026-05-08 19:19 49.63562 1.32381 16250 ft 316 kts 155°
2026-05-08 19:19 49.61586 1.33843 15919 ft 314 kts 155°
2026-05-08 19:19 49.59616 1.35301 15592 ft 312 kts 155°
2026-05-08 19:19 49.57671 1.36739 15300 ft 309 kts 155°
2026-05-08 19:20 49.55730 1.38171 14942 ft 310 kts 155°
2026-05-08 19:20 49.55101 1.38635 14832 ft 310 kts 155°
2026-05-08 19:20 49.51815 1.41057 13967 ft 320 kts 155°
2026-05-08 19:20 49.49810 1.42534 13754 ft 320 kts 156°
2026-05-08 19:21 49.47779 1.44028 13484 ft 326 kts 155°
2026-05-08 19:21 49.45744 1.45523 13204 ft 331 kts 155°
2026-05-08 19:21 49.43653 1.47058 12807 ft 333 kts 155°
2026-05-08 19:21 49.41561 1.48594 12419 ft 334 kts 155°
2026-05-08 19:22 49.39484 1.50171 12019 ft 331 kts 149°
2026-05-08 19:22 49.37610 1.52199 11645 ft 329 kts 143°
2026-05-08 19:22 49.35814 1.54359 11266 ft 327 kts 142°
2026-05-08 19:22 49.34038 1.56523 10911 ft 324 kts 141°
2026-05-08 19:23 49.32288 1.58655 10668 ft 318 kts 141°
2026-05-08 19:23 49.30564 1.60745 10420 ft 313 kts 141°
2026-05-08 19:23 49.28883 1.62776 10347 ft 302 kts 142°
2026-05-08 19:23 49.27266 1.64748 10219 ft 293 kts 141°
2026-05-08 19:24 49.25684 1.66688 9930 ft 292 kts 141°
2026-05-08 19:24 49.24098 1.68632 9582 ft 291 kts 141°
2026-05-08 19:24 49.22526 1.70554 9297 ft 288 kts 141°
2026-05-08 19:24 49.20963 1.72463 8987 ft 286 kts 141°
2026-05-08 19:25 49.19407 1.74363 8667 ft 285 kts 141°
2026-05-08 19:25 49.17882 1.76222 8396 ft 283 kts 141°
2026-05-08 19:25 49.16353 1.78092 8117 ft 280 kts 142°
2026-05-08 19:25 49.14843 1.79965 7820 ft 279 kts 142°
2026-05-08 19:26 49.13346 1.81836 7536 ft 277 kts 141°
2026-05-08 19:26 49.11860 1.83689 7259 ft 275 kts 142°
2026-05-08 19:26 49.10383 1.85526 6974 ft 273 kts 141°
2026-05-08 19:26 49.08914 1.87357 6683 ft 272 kts 138°
2026-05-08 19:27 49.07734 1.89597 6381 ft 271 kts 122°
2026-05-08 19:27 49.06769 1.92050 6140 ft 268 kts 121°
2026-05-08 19:27 49.05809 1.94481 5818 ft 267 kts 121°
2026-05-08 19:27 49.04856 1.96881 5595 ft 263 kts 121°
2026-05-08 19:28 49.03901 1.99264 5249 ft 264 kts 121°
2026-05-08 19:28 49.02939 2.01639 4978 ft 262 kts 121°
2026-05-08 19:28 49.01978 2.03989 4683 ft 261 kts 121°
2026-05-08 19:28 49.01014 2.06329 4383 ft 260 kts 121°
2026-05-08 19:29 49.00182 2.08740 4168 ft 253 kts 103°
2026-05-08 19:29 49.00186 2.11313 4057 ft 237 kts 81°
2026-05-08 19:29 49.00378 2.13716 3992 ft 220 kts 84°
2026-05-08 19:29 49.00542 2.15960 3997 ft 206 kts 84°
2026-05-08 19:30 49.00681 2.18044 4001 ft 190 kts 85°
2026-05-08 19:30 49.00755 2.19334 3989 ft 179 kts 85°
2026-05-08 19:30 49.00854 2.21192 4005 ft 177 kts 85°
2026-05-08 19:30 49.00949 2.23048 4016 ft 175 kts 86°
2026-05-08 19:31 49.01043 2.24898 3915 ft 175 kts 85°
2026-05-08 19:31 49.01135 2.26715 3668 ft 167 kts 85°
2026-05-08 19:31 49.01221 2.28414 3470 ft 157 kts 85°
2026-05-08 19:31 49.01338 2.30697 3225 ft 171 kts 85°
2026-05-08 19:32 49.01400 2.31925 3038 ft 172 kts 85°
2026-05-08 19:32 49.01492 2.33730 2809 ft 170 kts 85°
2026-05-08 19:32 49.01584 2.35511 2553 ft 165 kts 85°
2026-05-08 19:32 49.01671 2.37204 2355 ft 156 kts 84°
2026-05-08 19:33 49.01753 2.38790 2177 ft 148 kts 85°
2026-05-08 19:33 49.01834 2.40349 1974 ft 148 kts 85°
2026-05-08 19:33 49.01916 2.41921 1769 ft 148 kts 85°
2026-05-08 19:33 49.01996 2.43462 1557 ft 144 kts 85°
2026-05-08 19:34 49.02075 2.44960 1378 ft 145 kts 85°
2026-05-08 19:34 49.02156 2.46506 1190 ft 148 kts 84°
2026-05-08 19:34 49.02239 2.48079 989 ft 149 kts 83°
2026-05-08 19:34 49.02322 2.49651 773 ft 147 kts 84°
2026-05-08 19:35 49.02400 2.51194 578 ft 146 kts 83°
2026-05-08 19:35 49.02489 2.52740 365 ft 146 kts 83°
2026-05-08 19:35 49.02561 2.54112 353 ft 105 kts 86°
2026-05-08 19:35 49.02603 2.54910 358 ft 45 kts 87°
2026-05-08 19:36 49.02601 2.55098 358 ft 10 kts 96°
2026-05-08 19:36 49.02567 2.55299 358 ft 24 kts 110°
2026-05-08 19:36 49.02513 2.55473 357 ft 11 kts 115°
2026-05-08 19:36 49.02481 2.55566 356 ft 10 kts 129°
2026-05-08 19:37 49.02422 2.55609 337 ft 10 kts 168°
2026-05-08 19:37 49.02356 2.55622 353 ft 10 kts 173°
2026-05-08 19:37 49.02289 2.55630 353 ft 9 kts 175°
2026-05-08 19:37 49.02225 2.55638 360 ft 8 kts 175°
2026-05-08 19:38 49.02172 2.55645 353 ft 6 kts 175°
2026-05-08 19:38 49.02159 2.55647 353 ft 0 kts 175°
2026-05-08 19:39 49.02158 2.55647 353 ft 1 kts 175°
2026-05-08 19:39 49.02119 2.55642 353 ft 11 kts 193°
2026-05-08 19:39 49.02066 2.55527 357 ft 16 kts 269°
2026-05-08 19:39 49.02056 2.55362 353 ft 15 kts 263°
2026-05-08 19:40 49.02047 2.55203 353 ft 15 kts 266°
2026-05-08 19:40 49.02041 2.55051 356 ft 14 kts 266°
2026-05-08 19:40 49.02016 2.54911 361 ft 13 kts 243°
2026-05-08 19:40 49.01945 2.54845 353 ft 12 kts 185°
2026-05-08 19:41 49.01919 2.54846 353 ft 0 kts 175°
2026-05-08 19:42 49.01888 2.54849 355 ft 9 kts 175°
2026-05-08 19:42 49.01818 2.54858 355 ft 10 kts 175°
2026-05-08 19:42 49.01742 2.54867 353 ft 12 kts 175°
2026-05-08 19:43 49.01648 2.54879 353 ft 14 kts 175°
2026-05-08 19:43 49.01553 2.54891 357 ft 14 kts 175°
2026-05-08 19:43 49.01452 2.54905 353 ft 16 kts 174°
2026-05-08 19:43 49.01332 2.54944 357 ft 18 kts 164°
2026-05-08 19:44 49.01241 2.55016 356 ft 14 kts 113°
2026-05-08 19:44 49.01244 2.55155 353 ft 13 kts 85°
2026-05-08 19:44 49.01250 2.55290 353 ft 13 kts 83°
2026-05-08 19:44 49.01255 2.55370 361 ft 5 kts 83°
2026-05-08 19:45 49.01274 2.55408 359 ft 5 kts 18°
2026-05-08 19:45 49.01307 2.55408 353 ft 5 kts 357°
2026-05-08 19:45 49.01335 2.55405 353 ft 1 kts 354°
2026-05-08 19:45 49.01339 2.55404 353 ft 0 kts 354°